K6OUA-11 Weather Reports


Display with metric or nautical units.
time (UTC)temp
F
wind
direction
speed
MPH
gust
MPH
rain 1hr
in
rain 24hr
in
rain mn
in
humidity
%
barometer
mb
20260503175052 59 113 2.0 3.0 0.00 0.00 0.00 85
20260503174850 59 64 0.0 3.0 0.00 0.00 0.00 85
20260503174648 58 192 1.0 4.0 0.00 0.00 0.00 84
20260503174447 58 106 0.0 4.0 0.00 0.00 0.00 86
20260503174042 58 45 0.0 2.0 0.00 0.00 0.00 86
20260503173841 58 123 3.0 2.0 0.00 0.00 0.00 87
20260503173639 58 135 0.0 2.0 0.00 0.00 0.00 88
20260503173435 58 135 0.0 2.0 0.00 0.00 0.00 88
20260503173235 58 91 0.0 2.0 0.00 0.00 0.00 90
20260503173033 58 122 1.0 2.0 0.00 0.00 0.00 90
20260503172831 57 90 1.0 2.0 0.00 0.00 0.00 90
20260503172630 57 84 0.0 2.0 0.00 0.00 0.00 92
20260503172428 57 84 0.0 2.0 0.00 0.00 0.00 92
20260503172024 57 171 0.0 2.0 0.00 0.00 0.00 93
20260503171822 57 187 1.0 3.0 0.00 0.00 0.00 93
20260503171620 57 282 0.0 3.0 0.00 0.00 0.00 93
20260503171418 56 282 0.0 3.0 0.00 0.00 0.00 93
20260503171216 57 285 0.0 2.0 0.00 0.00 0.00 93
20260503171014 57 285 2.0 2.0 0.00 0.00 0.00 93
20260503170812 57 286 0.0 4.0 0.00 0.00 0.00 93
20260503170610 57 289 0.0 4.0 0.00 0.00 0.00 94
20260503170408 57 289 0.0 4.0 0.00 0.00 0.00 94
20260503170206 57 289 0.0 5.0 0.00 0.00 0.00 94
20260503160109 56 264 4.0 7.0 0.00 0.00 0.00 94
20260503150818 57 278 0.0 5.0 0.00 0.00 0.00 95
20260503150618 57 282 1.0 5.0 0.00 0.00 0.00 95
20260503150416 57 282 2.0 5.0 0.00 0.00 0.00 95
20260503150214 56 286 2.0 6.0 0.00 0.00 0.00 95
20260503131231 56 300 0.0 0.0 0.00 0.00 0.00 96
20260503131029 56 300 0.0 0.0 0.00 0.00 0.00 96
20260503130828 56 300 0.0 0.0 0.00 0.00 0.00 96
20260503130626 56 300 0.0 0.0 0.00 0.00 0.00 96
20260503130424 56 300 0.0 0.0 0.00 0.00 0.00 96
20260503130222 56 300 0.0 0.0 0.00 0.00 0.00 96
20260503120124 56 288 1.0 4.0 0.00 0.00 0.00 96
20260503110635 56 260 0.0 0.0 0.00 0.00 0.00 97
20260503110431 56 260 0.0 0.0 0.00 0.00 0.00 96
20260503100217 56 260 0.0 0.0 0.00 0.00 0.00 97
20260503100133 56 260 0.0 0.0 0.00 0.00 0.00 97
20260503090439 56 265 5.0 7.0 0.00 0.00 0.00 96
20260503090237 56 277 5.0 6.0 0.00 0.00 0.00 96
20260503081552 58 267 5.0 5.0 0.00 0.00 0.00 95
20260503081352 58 281 2.0 5.0 0.00 0.00 0.00 95
20260503080746 58 296 2.0 6.0 0.00 0.00 0.00 95
20260503080542 58 281 1.0 6.0 0.00 0.00 0.00 95
20260503080342 58 295 3.0 6.0 0.00 0.00 0.00 95
20260503080140 57 284 3.0 7.0 0.00 0.00 0.00 95
20260503072708 58 277 7.0 6.0 0.00 0.00 0.00 93
20260503072506 58 279 4.0 6.0 0.00 0.00 0.00 93
20260503072305 58 277 3.0 5.0 0.00 0.00 0.00 93
20260503072102 58 281 6.0 5.0 0.00 0.00 0.00 93
20260503071657 58 264 4.0 7.0 0.00 0.00 0.00 93
20260503071256 58 279 4.0 6.0 0.00 0.00 0.00 93
20260503071052 58 271 6.0 6.0 0.00 0.00 0.00 93
20260503070851 58 299 4.0 6.0 0.00 0.00 0.00 93
20260503070649 58 275 3.0 7.0 0.00 0.00 0.00 93
20260503070245 58 293 5.0 6.0 0.00 0.00 0.00 93
20260503060148 59 267 0.0 0.0 0.00 0.00 0.00 91
20260503054735 59 267 0.0 0.0 0.00 0.00 0.00 91
20260503054533 59 267 0.0 0.0 0.00 0.00 0.00 91
20260503054129 59 267 0.0 0.0 0.00 0.00 0.00 91
20260503053927 59 267 0.0 0.0 0.00 0.00 0.00 91
20260503053725 59 267 0.0 0.0 0.00 0.00 0.00 91
20260503053523 59 267 0.0 0.0 0.00 0.00 0.00 91
20260503053120 59 267 0.0 0.0 0.00 0.00 0.00 91
20260503052716 59 267 0.0 0.0 0.00 0.00 0.00 90
20260503052514 59 267 0.0 0.0 0.00 0.00 0.00 90
20260503052310 59 267 0.0 0.0 0.00 0.00 0.00 90
20260503051908 59 267 0.0 0.0 0.00 0.00 0.00 90
20260503051504 59 267 0.0 0.0 0.00 0.00 0.00 90
20260503051302 59 267 0.0 0.0 0.00 0.00 0.00 90
20260503051101 59 267 0.0 0.0 0.00 0.00 0.00 90
20260503050859 59 267 0.0 0.0 0.00 0.00 0.00 90
20260503050454 59 267 0.0 0.0 0.00 0.00 0.00 90
20260503050253 59 267 0.0 0.0 0.00 0.00 0.00 90
20260503050051 59 267 0.0 0.0 0.00 0.00 0.00 90
20260503045849 59 267 0.0 0.0 0.00 0.00 0.00 90
20260503045445 59 267 0.0 0.0 0.00 0.00 0.00 90
20260503045244 59 267 0.0 0.0 0.00 0.00 0.00 90
20260503045042 59 267 0.0 0.0 0.00 0.00 0.00 90
20260503044840 59 267 0.0 0.0 0.00 0.00 0.00 90
20260503044642 59 267 0.0 0.0 0.00 0.00 0.00 90
20260503044436 59 267 0.0 0.0 0.00 0.00 0.00 90
20260503044234 59 267 0.0 0.0 0.00 0.00 0.00 90
20260503044030 59 267 0.0 0.0 0.00 0.00 0.00 90
20260503043830 59 267 0.0 0.0 0.00 0.00 0.00 90
20260503043628 59 267 0.0 0.0 0.00 0.00 0.00 90
20260503043426 59 267 0.0 0.0 0.00 0.00 0.00 90
20260503043224 59 267 0.0 0.0 0.00 0.00 0.00 90
20260503043022 59 267 0.0 0.0 0.00 0.00 0.00 90
20260503042821 59 267 0.0 0.0 0.00 0.00 0.00 90
20260503042415 59 267 0.0 0.0 0.00 0.00 0.00 90
20260503042013 59 267 0.0 0.0 0.00 0.00 0.00 90
20260503041811 59 267 0.0 0.0 0.00 0.00 0.00 90
20260503041609 59 267 0.0 0.0 0.00 0.00 0.00 90
20260503041205 59 267 0.0 0.0 0.00 0.00 0.00 90
20260503041003 59 267 0.0 0.0 0.00 0.00 0.00 90
20260503040800 59 267 0.0 0.0 0.00 0.00 0.00 90
20260503040600 59 267 0.0 0.0 0.00 0.00 0.00 89
20260503040358 59 267 0.0 0.0 0.00 0.00 0.00 90
20260503035348 59 281 3.0 5.0 0.00 0.00 0.00 90
20260503035146 59 288 2.0 7.0 0.00 0.00 0.00 90
20260503034944 59 293 4.0 7.0 0.00 0.00 0.00 90
20260503034540 59 275 5.0 7.0 0.00 0.00 0.00 90
20260503033935 59 284 4.0 7.0 0.00 0.00 0.00 89
20260503033531 59 286 2.0 8.0 0.00 0.00 0.00 88
20260503033329 59 275 5.0 8.0 0.00 0.00 0.00 88
20260503033127 59 281 6.0 8.0 0.00 0.00 0.00 88
20260503032925 60 268 5.0 8.0 0.00 0.00 0.00 88
20260503032723 60 278 6.0 9.0 0.00 0.00 0.00 88
20260503032520 60 284 6.0 9.0 0.00 0.00 0.00 88
20260503032116 60 277 8.0 8.0 0.00 0.00 0.00 87
20260503031914 60 267 7.0 8.0 0.00 0.00 0.00 87
20260503031714 60 293 3.0 10.0 0.00 0.00 0.00 86
20260503031512 60 270 6.0 10.0 0.00 0.00 0.00 86
20260503031308 60 270 6.0 10.0 0.00 0.00 0.00 86
20260503031108 60 279 7.0 10.0 0.00 0.00 0.00 85
20260503030906 60 281 7.0 10.0 0.00 0.00 0.00 86
20260503030704 61 274 9.0 9.0 0.00 0.00 0.00 85
20260503030503 61 270 6.0 9.0 0.00 0.00 0.00 85
20260503030259 61 267 7.0 9.0 0.00 0.00 0.00 85
20260503030059 61 291 7.0 9.0 0.00 0.00 0.00 84
20260503025857 61 284 8.0 9.0 0.00 0.00 0.00 84
20260503025655 61 282 6.0 10.0 0.00 0.00 0.00 84
20260503025451 61 277 7.0 10.0 0.00 0.00 0.00 84
20260503025251 61 268 8.0 9.0 0.00 0.00 0.00 83
20260503025049 62 260 9.0 9.0 0.00 0.00 0.00 83
20260503024847 62 264 8.0 9.0 0.00 0.00 0.00 82
20260503024644 62 275 8.0 9.0 0.00 0.00 0.00 82
20260503024444 62 272 6.0 9.0 0.00 0.00 0.00 82
20260503024242 62 271 7.0 9.0 0.00 0.00 0.00 82
20260503024039 62 274 7.0 9.0 0.00 0.00 0.00 81
20260503023836 62 284 6.0 9.0 0.00 0.00 0.00 81
20260503023434 63 270 6.0 9.0 0.00 0.00 0.00 80
20260503023230 63 277 6.0 9.0 0.00 0.00 0.00 80
20260503023030 63 260 8.0 9.0 0.00 0.00 0.00 79
20260503022828 63 253 8.0 9.0 0.00 0.00 0.00 79
20260503022626 64 272 6.0 10.0 0.00 0.00 0.00 78
20260503022425 64 286 7.0 10.0 0.00 0.00 0.00 78
20260503022223 64 293 7.0 8.0 0.00 0.00 0.00 77
20260503022021 64 279 6.0 8.0 0.00 0.00 0.00 76
20260503021817 65 281 4.0 9.0 0.00 0.00 0.00 76
20260503021615 65 271 5.0 9.0 0.00 0.00 0.00 76
20260503021213 65 261 7.0 9.0 0.00 0.00 0.00 75
20260503021011 65 295 7.0 9.0 0.00 0.00 0.00 75
20260503020809 65 292 7.0 9.0 0.00 0.00 0.00 74
20260503020607 66 279 5.0 9.0 0.00 0.00 0.00 73
20260503020404 66 275 7.0 9.0 0.00 0.00 0.00 73
20260503020204 66 277 4.0 9.0 0.00 0.00 0.00 72
20260503020002 66 278 6.0 9.0 0.00 0.00 0.00 72
20260503015800 67 282 3.0 9.0 0.00 0.00 0.00 72
20260503015356 67 265 6.0 9.0 0.00 0.00 0.00 71
20260503014952 67 279 6.0 10.0 0.00 0.00 0.00 70
20260503014750 67 298 4.0 8.0 0.00 0.00 0.00 70
20260503014548 68 265 4.0 8.0 0.00 0.00 0.00 69
20260503013942 68 267 4.0 8.0 0.00 0.00 0.00 68
20260503013538 68 251 3.0 9.0 0.00 0.00 0.00 68
20260503013337 69 272 6.0 9.0 0.00 0.00 0.00 67
20260503013135 69 268 6.0 9.0 0.00 0.00 0.00 67
20260503012933 69 260 5.0 9.0 0.00 0.00 0.00 67
20260503012529 69 262 8.0 9.0 0.00 0.00 0.00 66
20260503012327 69 264 7.0 9.0 0.00 0.00 0.00 66
20260503011924 69 267 5.0 10.0 0.00 0.00 0.00 66
20260503011520 69 271 6.0 11.0 0.00 0.00 0.00 66
20260503011115 69 286 7.0 12.0 0.00 0.00 0.00 67
20260503010914 69 258 11.0 12.0 0.00 0.00 0.00 65
20260503010711 69 268 8.0 10.0 0.00 0.00 0.00 65
20260503010510 69 268 6.0 10.0 0.00 0.00 0.00 65
20260503010308 69 277 7.0 12.0 0.00 0.00 0.00 65
20260503010106 70 277 9.0 12.0 0.00 0.00 0.00 65
20260503005904 70 240 3.0 12.0 0.00 0.00 0.00 65
20260503005702 70 257 10.0 11.0 0.00 0.00 0.00 63
20260503005500 71 248 11.0 11.0 0.00 0.00 0.00 63
20260503005258 70 260 5.0 10.0 0.00 0.00 0.00 63
20260503005056 70 254 10.0 10.0 0.00 0.00 0.00 63
20260503004855 70 270 7.0 10.0 0.00 0.00 0.00 63
20260503004652 70 278 7.0 10.0 0.00 0.00 0.00 63
20260503004450 71 260 5.0 10.0 0.00 0.00 0.00 62
20260503004248 71 270 10.0 10.0 0.00 0.00 0.00 62
20260503004045 71 255 4.0 10.0 0.00 0.00 0.00 62
20260503003844 71 278 4.0 10.0 0.00 0.00 0.00 61
20260503003643 71 260 6.0 13.0 0.00 0.00 0.00 62
20260503003440 71 278 3.0 13.0 0.00 0.00 0.00 62
20260503003037 71 251 7.0 9.0 0.00 0.00 0.00 61
20260503002835 72 271 9.0 9.0 0.00 0.00 0.00 61
20260503002633 71 275 6.0 9.0 0.00 0.00 0.00 61
20260503002429 72 265 8.0 9.0 0.00 0.00 0.00 61
20260503002229 72 284 6.0 10.0 0.00 0.00 0.00 60
20260503002027 72 277 7.0 10.0 0.00 0.00 0.00 61
20260503001825 71 251 5.0 10.0 0.00 0.00 0.00 61
20260503001623 71 255 6.0 11.0 0.00 0.00 0.00 60
20260503001421 71 275 7.0 11.0 0.00 0.00 0.00 61
20260503001219 72 262 9.0 12.0 0.00 0.00 0.00 61
20260503001015 71 275 10.0 12.0 0.00 0.00 0.00 60
20260503000814 71 270 9.0 10.0 0.00 0.00 0.00 60
20260503000614 72 258 7.0 10.0 0.00 0.00 0.00 60
20260503000409 72 261 11.0 10.0 0.00 0.00 0.00 60
20260503000007 71 268 7.0 12.0 0.00 0.00 0.00 60
20260502235805 72 267 9.0 10.0 0.00 0.00 0.00 59
20260502235603 72 268 9.0 10.0 0.00 0.00 0.00 58
20260502235159 72 271 7.0 8.0 0.00 0.00 0.00 58
20260502234957 73 258 5.0 8.0 0.00 0.00 0.00 59
20260502234755 72 250 6.0 9.0 0.00 0.00 0.00 60
20260502234553 72 274 6.0 9.0 0.00 0.00 0.00 59
20260502234351 72 268 5.0 9.0 0.00 0.00 0.00 61
20260502234150 71 306 1.0 10.0 0.00 0.00 0.00 62
20260502233946 71 267 7.0 10.0 0.00 0.00 0.00 61
20260502233745 71 250 8.0 9.0 0.00 0.00 0.00 61
20260502233543 71 271 8.0 9.0 0.00 0.00 0.00 61
20260502233341 71 246 1.0 9.0 0.00 0.00 0.00 61
20260502232937 71 296 4.0 10.0 0.00 0.00 0.00 61
20260502232735 71 267 5.0 11.0 0.00 0.00 0.00 61
20260502232534 71 274 7.0 11.0 0.00 0.00 0.00 61
20260502232331 71 278 7.0 11.0 0.00 0.00 0.00 61
20260502232130 71 286 7.0 10.0 0.00 0.00 0.00 61
20260502231926 71 264 7.0 10.0 0.00 0.00 0.00 61
20260502231524 71 219 3.0 12.0 0.00 0.00 0.00 62
20260502231120 71 258 10.0 9.0 0.00 0.00 0.00 60
20260502230918 72 265 9.0 9.0 0.00 0.00 0.00 59
20260502230716 72 250 6.0 10.0 0.00 0.00 0.00 60
20260502230514 72 247 8.0 10.0 0.00 0.00 0.00 60
20260502230312 71 257 7.0 12.0 0.00 0.00 0.00 61
20260502230110 71 196 1.0 12.0 0.00 0.00 0.00 61
20260502225906 71 258 6.0 12.0 0.00 0.00 0.00 62
20260502225504 71 258 9.0 14.0 0.00 0.00 0.00 62
20260502225304 71 274 7.0 12.0 0.00 0.00 0.00 61
20260502225058 71 262 8.0 12.0 0.00 0.00 0.00 61
20260502224858 71 227 7.0 12.0 0.00 0.00 0.00 61
20260502224656 71 272 7.0 11.0 0.00 0.00 0.00 61
20260502224252 71 279 4.0 14.0 0.00 0.00 0.00 62
20260502223848 70 274 8.0 14.0 0.00 0.00 0.00 61
20260502223646 70 262 8.0 13.0 0.00 0.00 0.00 63
20260502223443 70 260 8.0 13.0 0.00 0.00 0.00 62
20260502223243 70 250 11.0 14.0 0.00 0.00 0.00 62
20260502223041 71 264 7.0 14.0 0.00 0.00 0.00 62
20260502222838 71 253 9.0 14.0 0.00 0.00 0.00 62
20260502222637 71 277 10.0 14.0 0.00 0.00 0.00 61
20260502222434 72 284 6.0 14.0 0.00 0.00 0.00 59
20260502222233 72 298 1.0 13.0 0.00 0.00 0.00 61
20260502222029 71 267 9.0 13.0 0.00 0.00 0.00 62
20260502221827 71 260 12.0 13.0 0.00 0.00 0.00 60
20260502221627 71 237 9.0 14.0 0.00 0.00 0.00 62
20260502221425 71 251 11.0 14.0 0.00 0.00 0.00 61
20260502221223 72 274 14.0 15.0 0.00 0.00 0.00 61
20260502221021 72 201 4.0 15.0 0.00 0.00 0.00 62
20260502220819 71 261 11.0 14.0 0.00 0.00 0.00 61
20260502220617 71 271 7.0 14.0 0.00 0.00 0.00 62
20260502220415 71 260 11.0 14.0 0.00 0.00 0.00 61
20260502220213 71 285 9.0 14.0 0.00 0.00 0.00 60
20260502220011 72 251 11.0 14.0 0.00 0.00 0.00 62
20260502215809 72 254 9.0 14.0 0.00 0.00 0.00 61
20260502215607 71 272 5.0 14.0 0.00 0.00 0.00 61
20260502215405 72 254 10.0 14.0 0.00 0.00 0.00 61
20260502215203 72 262 11.0 12.0 0.00 0.00 0.00 60
20260502214800 72 258 3.0 12.0 0.00 0.00 0.00 60
20260502214356 72 257 4.0 12.0 0.00 0.00 0.00 61
20260502214152 72 244 7.0 15.0 0.00 0.00 0.00 61
20260502213748 72 255 8.0 13.0 0.00 0.00 0.00 61
20260502213346 72 229 13.0 13.0 0.00 0.00 0.00 60
20260502213144 72 260 9.0 17.0 0.00 0.00 0.00 60
20260502212942 72 247 6.0 17.0 0.00 0.00 0.00 61
20260502212740 72 264 9.0 15.0 0.00 0.00 0.00 60
20260502212334 73 255 16.0 15.0 0.00 0.00 0.00 59
20260502211932 72 274 12.0 16.0 0.00 0.00 0.00 60
20260502211730 73 268 9.0 14.0 0.00 0.00 0.00 60
20260502211528 72 244 12.0 14.0 0.00 0.00 0.00 60
20260502211326 72 268 11.0 14.0 0.00 0.00 0.00 59
20260502211124 73 289 8.0 14.0 0.00 0.00 0.00 59
20260502210921 73 278 6.0 14.0 0.00 0.00 0.00 58
20260502210720 73 239 3.0 16.0 0.00 0.00 0.00 59
20260502210518 72 277 7.0 16.0 0.00 0.00 0.00 59
20260502210316 73 258 12.0 12.0 0.00 0.00 0.00 58
20260502210114 73 201 5.0 12.0 0.00 0.00 0.00 59
20260502205912 73 253 9.0 12.0 0.00 0.00 0.00 59
20260502205709 73 267 8.0 15.0 0.00 0.00 0.00 58
20260502205509 72 250 9.0 15.0 0.00 0.00 0.00 59
20260502205307 73 246 10.0 14.0 0.00 0.00 0.00 59
20260502205105 72 282 10.0 14.0 0.00 0.00 0.00 59
20260502204903 72 270 4.0 14.0 0.00 0.00 0.00 59
20260502204701 72 282 8.0 14.0 0.00 0.00 0.00 58
20260502204255 74 265 8.0 14.0 0.00 0.00 0.00 59
20260502204055 73 180 3.0 14.0 0.00 0.00 0.00 59
20260502203853 73 275 7.0 14.0 0.00 0.00 0.00 59
20260502203247 73 255 8.0 13.0 0.00 0.00 0.00 59
20260502202843 73 270 5.0 13.0 0.00 0.00 0.00 60
20260502202640 73 264 11.0 13.0 0.00 0.00 0.00 60
20260502202439 73 268 9.0 13.0 0.00 0.00 0.00 59
20260502202035 73 262 6.0 11.0 0.00 0.00 0.00 59
20260502201834 73 275 7.0 11.0 0.00 0.00 0.00 58
20260502201632 73 281 5.0 15.0 0.00 0.00 0.00 57
20260502201227 73 264 6.0 14.0 0.00 0.00 0.00 58
20260502201026 73 261 10.0 14.0 0.00 0.00 0.00 57
20260502200826 74 260 10.0 11.0 0.00 0.00 0.00 57
20260502200622 74 282 1.0 11.0 0.00 0.00 0.00 57
20260502200420 74 278 5.0 11.0 0.00 0.00 0.00 56
20260502200218 75 261 6.0 11.0 0.00 0.00 0.00 56
20260502195814 74 257 5.0 12.0 0.00 0.00 0.00 56
20260502195612 74 264 8.0 12.0 0.00 0.00 0.00 57
20260502195410 74 268 1.0 12.0 0.00 0.00 0.00 57
20260502195208 74 272 8.0 10.0 0.00 0.00 0.00 57
20260502195006 73 267 7.0 10.0 0.00 0.00 0.00 58
20260502194804 73 243 7.0 10.0 0.00 0.00 0.00 58
20260502194602 73 277 6.0 10.0 0.00 0.00 0.00 57
20260502194158 72 286 5.0 10.0 0.00 0.00 0.00 59
20260502193351 72 260 2.0 8.0 0.00 0.00 0.00 59
20260502193149 72 284 7.0 12.0 0.00 0.00 0.00 59
20260502192947 72 271 5.0 12.0 0.00 0.00 0.00 61
20260502192744 71 265 8.0 11.0 0.00 0.00 0.00 61
20260502192542 71 268 8.0 11.0 0.00 0.00 0.00 61
20260502192340 71 189 2.0 11.0 0.00 0.00 0.00 62
20260502192139 71 265 2.0 12.0 0.00 0.00 0.00 63
20260502191937 70 274 9.0 12.0 0.00 0.00 0.00 62
20260502191733 71 274 8.0 13.0 0.00 0.00 0.00 63
20260502191531 70 274 7.0 13.0 0.00 0.00 0.00 62
20260502191331 71 275 7.0 13.0 0.00 0.00 0.00 64
20260502191129 70 296 6.0 12.0 0.00 0.00 0.00 63
20260502190927 70 274 6.0 12.0 0.00 0.00 0.00 64
20260502190725 70 232 8.0 13.0 0.00 0.00 0.00 64
20260502190523 70 279 7.0 13.0 0.00 0.00 0.00 66
20260502185917 70 274 5.0 12.0 0.00 0.00 0.00 65
20260502185513 70 262 7.0 11.0 0.00 0.00 0.00 66
20260502185109 70 262 9.0 10.0 0.00 0.00 0.00 67
20260502184504 69 282 7.0 10.0 0.00 0.00 0.00 67
20260502184301 69 262 5.0 11.0 0.00 0.00 0.00 67
20260502183654 69 255 6.0 12.0 0.00 0.00 0.00 68
20260502183453 69 258 8.0 12.0 0.00 0.00 0.00 68
20260502183251 69 257 5.0 8.0 0.00 0.00 0.00 68
20260502183050 69 286 6.0 8.0 0.00 0.00 0.00 66
20260502182646 70 271 2.0 6.0 0.00 0.00 0.00 67
20260502182444 70 300 0.0 6.0 0.00 0.00 0.00 68
20260502182242 69 248 1.0 5.0 0.00 0.00 0.00 67
20260502182040 69 210 6.0 5.0 0.00 0.00 0.00 67
20260502181838 69 122 1.0 5.0 0.00 0.00 0.00 69
20260502181637 69 133 4.0 5.0 0.00 0.00 0.00 68
20260502181232 68 119 2.0 1.0 0.00 0.00 0.00 72
20260502181031 68 116 1.0 1.0 0.00 0.00 0.00 72
20260502180828 67 90 0.0 1.0 0.00 0.00 0.00 75
20260502180626 67 90 0.0 5.0 0.00 0.00 0.00 77
20260502180425 66 150 0.0 5.0 0.00 0.00 0.00 76
20260502180223 66 178 3.0 2.0 0.00 0.00 0.00 74